COSMOS 414

Satellite information

Favourite Embed

Satellite Type and Status

PAYLOADIN ORBIT

Key statistics

Satellite COSMOS 414 at a glance.

Uptime

19945

Days in orbit

Revolutions

≈ 12.5

Per day

Orbit

LEO

Low Earth Orbit

Inclination

74.0

Latest

Satellite identification and parameters

Extended collection of information and parameters for COSMOS 414.

Object identification

Identified? True

Debris? False

Object name: COSMOS 414

International designator: 1971-041D

Object number (NORAD): 5213

Object ID (CCSDS): 5213

Country: COMMONWEALTH OF INDEPENDENT STATES (CIS)

Current information (Y/N): Y

RCS size: MEDIUM

Orbital parameters

Period: 115.095 minutes

Inclination: 74.0127 deg

SMA: 7837.845 km

Apoapsis: 1493.17 km

Periapsis: 1426.25 km

RAAN: 152.0331 deg

Eccentricy: 0.00426902

Argument of periapsis: 358.3844 deg

Mean anomaly: 76.5573 deg

Mean motion: 12.51145296 rev/day

Mean motion (dot): 0.00000006 rev/day2

B* drag term: 0.00014277614 1/REarth

Two-line elements (TLE)

Creation date: Dec. 14, 2025, 3:07 a.m.

Reference frame: TEME

Reference center: EARTH

Epoch: Dec. 13, 2025, 2:47 p.m. UTC

TLE line 0: 0 COSMOS 414

TLE line 1: 1 05213U 71041D 25347.61640689 .00000006 00000-0 14278-3 0 9996

TLE line 2: 2 05213 74.0127 152.0331 0042690 358.3844 76.5573 12.51145296493943

Live tracking on map

Real-time ground track for satellite COSMOS 414.

In-orbit conjunctions

There are no conjunctions computed for COSMOS 414, at the moment. Check back to stay up to date, as we update our databases every day.

Go to all conjunctions

Associated space launch

Military communications satellites

COSMOS 414 was lifted into orbit during the mission ‘Kosmos-3M | Strela-1M 9-16’, on board a Kosmos-3M space rocket.

The launch took place on May 7, 1971, 2:20 p.m. from 132/1 (132L).

For more information about the launch, click the button.

Launch to space Kosmos-3M | Strela-1M 9-16
Kosmos-3M | Strela-1M 9-16

Agency: N/A

Status: Launch Successful

Launch date: May 7, 1971, 2:20 p.m. UTC

Rocket: Kosmos-3M

Launch pad: 132/1 (132L)

Location: Plesetsk Cosmodrome, Russian Federation

...

Latest news about this satellite

There are no fresh news available about this satellite. Check back as we update our databases every day.


Newsletter sign-up

Weekly statistics, charts and insights to help you stay on top of the space industry.